Home   Weather   Theni   Past weeks

Flag for India Past Weather in Theni, Tamil Nadu, India — Yesterday and Last 2 Weeks

Now
86 °F

Broken clouds.


Feels Like: 88 °F
Forecast: 73 / 94 °F
Wind: 12 mph from Southwest

Location: Coimbatore / Peelamedu

Current Time: Jun 28, 2017 at 2:25:24 pm

Latest Report: Jun 28, 2017 at 2:00 pm


Visibility: 4 mi

Pressure: 29.83 "Hg

Humidity: 52%

Dew Point: 66 °F

Location of TheniLocation

Past Weather in Theni — Graph

°F

Theni Temperature Yesterday

Maximum temperature yesterday: 82 °F (at 11:30 am)
Minimum temperature yesterday: 73 °F (at 5:30 am)
Average temperature yesterday: 77 °F

High & Low Weather Summary for the Past Weeks

 TemperatureHumidityPressure
High93 °F (Jun 15, 1:30 pm)100% (Jun 21, 5:30 am)29.89 "Hg (Jun 21, 5:30 am)
Low73 °F (Jun 21, 5:30 am)44% (Jun 17, 4:30 pm)29.71 "Hg (Jun 18, 4:30 pm)
Average81 °F74%29.81 "Hg
* Reported Jun 13 12:30 pm — Jun 28 1:00 pm, Theni. Weather by CustomWeather, © 2017

Note: Actual official high and low records may vary slightly from our data, if they occured in-between our weather recording intervals... More about our weather records

Advertising

Theni Weather History for the Previous 24 Hours

Scroll right to see more
 ConditionsComfort  
Time TempWeatherWind HumidityBarometerVisibility
1:00 pm
Wed, Jun 28
84 °FBroken clouds.12 mph58%29.86 "Hg4 mi
12:30 pm84 °FBroken clouds.12 mph58%29.86 "Hg4 mi
12:00 pm82 °FBroken clouds.17 mph62%29.86 "Hg4 mi
11:30 am82 °FBroken clouds.13 mph62%29.86 "Hg4 mi
11:00 am81 °FDrizzle. Broken clouds.14 mph66%29.89 "Hg4 mi
10:30 am81 °FDrizzle. Broken clouds.12 mph70%29.89 "Hg4 mi
10:00 am79 °FBroken clouds.14 mph74%29.86 "Hg4 mi
9:30 am77 °FFog.14 mph79%29.86 "Hg3 mi
9:00 am77 °FDrizzle. Broken clouds.12 mph79%29.89 "Hg3 mi
8:30 am75 °FDrizzle. Broken clouds.12 mph83%29.86 "Hg3 mi
8:00 am75 °FDrizzle. Broken clouds.12 mph83%29.86 "Hg3 mi
7:30 am75 °FDrizzle. Broken clouds.8 mph83%29.86 "Hg3 mi
7:00 am73 °FFog.12 mph89%29.83 "Hg3 mi
6:30 am73 °FPartly cloudy.14 mph89%29.83 "Hg3 mi
6:00 am73 °FFog.9 mph89%29.83 "Hg3 mi
5:30 am73 °FFog.7 mph89%29.83 "Hg3 mi
4:30 am75 °FFog.12 mph83%29.80 "Hg3 mi
3:30 am75 °FFog.12 mph83%29.80 "Hg3 mi
2:30 am75 °FFog.14 mph83%29.80 "Hg3 mi
1:30 am75 °FPassing clouds.9 mph83%29.83 "Hg3 mi
12:30 am75 °FPassing clouds.9 mph83%29.83 "Hg3 mi
12:00 am75 °FPassing clouds.7 mph83%29.83 "Hg3 mi
11:30 pm
Tue, Jun 27
75 °FPassing clouds.10 mph83%29.86 "Hg3 mi
11:00 pm75 °FPassing clouds.10 mph83%29.86 "Hg3 mi
10:30 pm75 °FPassing clouds.9 mph83%29.86 "Hg3 mi
10:00 pm75 °FPassing clouds.10 mph83%29.86 "Hg3 mi
9:30 pm75 °FPassing clouds.9 mph83%29.86 "Hg3 mi
9:00 pm75 °FPassing clouds.14 mph83%29.86 "Hg3 mi
8:30 pm75 °FPassing clouds.12 mph83%29.86 "Hg3 mi
8:00 pm75 °FPassing clouds.9 mph83%29.86 "Hg3 mi
7:30 pm75 °FPassing clouds.7 mph83%29.83 "Hg3 mi
7:00 pm75 °FBroken clouds.8 mph83%29.83 "Hg3 mi
6:30 pm77 °FDrizzle. Broken clouds.9 mph79%29.83 "Hg3 mi
6:00 pm79 °FBroken clouds.10 mph70%29.83 "Hg3 mi
5:30 pm79 °FDrizzle. Broken clouds.10 mph70%29.83 "Hg3 mi
5:00 pm77 °FDrizzle. Broken clouds.12 mph83%29.83 "Hg3 mi
4:30 pm77 °FDrizzle. Broken clouds.14 mph83%29.83 "Hg3 mi
4:00 pm79 °FDrizzle. Broken clouds.12 mph79%29.83 "Hg3 mi
3:30 pm79 °FDrizzle. Broken clouds.14 mph79%29.83 "Hg3 mi
3:00 pm77 °FDrizzle. Broken clouds.9 mph83%29.83 "Hg3 mi
2:30 pm77 °FDrizzle. Broken clouds.9 mph83%29.83 "Hg3 mi
2:00 pm79 °FDrizzle. Broken clouds.9 mph79%29.83 "Hg3 mi
Weather by CustomWeather, © 2017

See weather overviewHow to use our weather pages